This is the latest recevied weather packets stored in our database for station/object W4GAP. If no packets are shown the sender has not sent any weather packets the latest 10 day(s).
| Time | Temp. | Humidity | Pressure | Rain* | Wind** | Luminosity | Snow |
|---|---|---|---|---|---|---|---|
| 1778029314 | 22.78° C | 46% | 1010.3 hPa | 0 mm | - | 0 W/m² | - |
| 1778029011 | 22.78° C | 46% | 1010.3 hPa | 0 mm | - | 0 W/m² | - |
| 1778028708 | 22.78° C | 46% | 1010.3 hPa | 0 mm | - | 0 W/m² | - |
| 1778028404 | 22.78° C | 47% | 1010.5 hPa | 0 mm | - | 0 W/m² | - |
| 1778028101 | 22.78° C | 47% | 1010.2 hPa | 0 mm | - | 0 W/m² | - |
| 1778027797 | 22.78° C | 46% | 1010.5 hPa | 0 mm | - | 0 W/m² | - |
| 1778027494 | 22.78° C | 47% | 1010.2 hPa | 0 mm | - | 0 W/m² | - |
| 1778027190 | 22.78° C | 48% | 1010.5 hPa | 0 mm | - | 0 W/m² | - |
| 1778026886 | 22.78° C | 48% | 1010.3 hPa | 0 mm | - | 0 W/m² | - |
| 1778026582 | 22.78° C | 48% | 1010.3 hPa | 0 mm | - | 0 W/m² | - |
| 1778026280 | 22.78° C | 48% | 1010.2 hPa | 0 mm | - | 0 W/m² | - |
| 1778025977 | 22.78° C | 48% | 1010.1 hPa | 0 mm | - | 0 W/m² | - |
| 1778025674 | 23.33° C | 47% | 1010.5 hPa | 0 mm | - | 1 W/m² | - |
| 1778025372 | 23.33° C | 47% | 1010.5 hPa | 0 mm | - | 2 W/m² | - |
| 1778025069 | 23.89° C | 46% | 1010.6 hPa | 0 mm | - | 1 W/m² | - |
| 1778024766 | 23.89° C | 45% | 1010.6 hPa | 0 mm | - | 4 W/m² | - |
| 1778024462 | 23.89° C | 45% | 1010.3 hPa | 0 mm | - | 6 W/m² | - |
| 1778024160 | 23.89° C | 45% | 1010.3 hPa | 0 mm | - | 11 W/m² | - |
| 1778023857 | 23.89° C | 46% | 1010.3 hPa | 0 mm | - | 9 W/m² | - |
| 1778023555 | 24.44° C | 44% | 1010.5 hPa | 0 mm | - | 6 W/m² | - |
| 1778023252 | 24.44° C | 43% | 1010.2 hPa | 0 mm | - | 12 W/m² | - |
| 1778022949 | 24.44° C | 42% | 1010.2 hPa | 0 mm | - | 22 W/m² | - |
| 1778022648 | 24.44° C | 42% | 1010.1 hPa | 0 mm | - | 19 W/m² | - |
| 1778022345 | 24.44° C | 43% | 1010.5 hPa | 0 mm | - | 14 W/m² | - |
| 1778022041 | 24.44° C | 42% | 1010.7 hPa | 0 mm | - | 11 W/m² | - |
* Rain latest hour (hover to see other rain measurements)
** Current wind speed in m/s (hover to see current wind gust speed)